Weather History for Greenville, AL

Change the Weather History Date:

Friday, March 29, 2013

  Actual Average Record
Temperature  
Mean Temperature 54 °F -  
Max Temperature 73 °F 74 °F 86 °F (1985)
Min Temperature 36 °F 51 °F 30 °F (1955)
Degree Days  
Heating Degree Days 10    
Growing Degree Days 4 (Base 50)    
Moisture  
Dew Point 35 °F    
Average Humidity 51    
Maximum Humidity 89    
Minimum Humidity 21    
Precipitation  
Precipitation 0.00 in - - ()
Sea Level Pressure  
Sea Level Pressure 30.24 in    
Wind  
Wind Speed 3 mph (SSW)    
Max Wind Speed 13 mph    
Max Gust Speed 21 mph    
Visibility 10 miles    
Events      
Averages and records for this station are not official NWS values.
T = Trace of Precipitation, MM = Missing Value Source: NWS Daily Summary

Daily Weather History Graph

Daily Weather History Graph

Search for Another Location

Airport:

Trip Planner

Search our weather history database for the weather conditions in past years. The results will help you decide how hot, cold, wet, or windy it might be!

Date:

Astronomy

Mar. 29, 2013 Rise Set
Actual Time 6:38 AM CDT 7:04 PM CDT
Civil Twilight 6:13 AM CDT 7:28 PM CDT
Nautical Twilight 5:45 AM CDT 7:57 PM CDT
Astronomical Twilight 5:16 AM CDT 8:26 PM CDT
Moon 9:51 PM CDT (3/29) 7:57 AM CDT (3/29)
Length of Visible Light 13h 14m
Length of Day
12h 25m
Waning Gibbous, 93% of the Moon is Illuminated
Mar 29
Waning Gibbous
Apr 2
Last Quarter
Apr 10
New
Apr 18
First Quarter
Apr 25
Full

Hourly Weather History & Observations

Time (CDT) Temp. Dew Point Humidity Pressure Visibility Wind Dir Wind Speed Gust Speed Precip Events Conditions
12:56 AM 43.0 °F 37.0 °F 80% 30.30 in 10.0 mi Calm Calm - N/A   Clear
1:56 AM 41.0 °F 36.0 °F 82% 30.29 in 10.0 mi Calm Calm - N/A   Clear
2:56 AM 39.9 °F 36.0 °F 86% 30.29 in 10.0 mi Calm Calm - N/A   Clear
3:56 AM 39.0 °F 35.1 °F 86% 30.28 in 10.0 mi Calm Calm - N/A   Clear
4:56 AM 37.9 °F 34.0 °F 86% 30.27 in 10.0 mi Calm Calm - N/A   Clear
5:56 AM 39.0 °F 34.0 °F 82% 30.29 in 10.0 mi Calm Calm - N/A   Clear
6:56 AM 36.0 °F 33.1 °F 89% 30.30 in 10.0 mi Calm Calm - N/A   Clear
7:56 AM 44.1 °F 37.0 °F 76% 30.31 in 10.0 mi Calm Calm - N/A   Clear
8:56 AM 54.0 °F 39.9 °F 59% 30.32 in 10.0 mi Calm Calm - N/A   Clear
9:56 AM 61.0 °F 35.1 °F 38% 30.32 in 10.0 mi SSE 6.9 mph - N/A   Clear
11:56 AM 69.1 °F 36.0 °F 30% 30.29 in 10.0 mi Variable 4.6 mph - N/A   Clear
12:56 PM 71.1 °F 32.0 °F 24% 30.25 in 10.0 mi SSW 6.9 mph - N/A   Clear
1:56 PM 72.0 °F 32.0 °F 23% 30.22 in 10.0 mi South 6.9 mph - N/A   Clear
2:56 PM 73.9 °F 33.1 °F 22% 30.19 in 10.0 mi SSW 11.5 mph 17.3 mph N/A   Clear
3:56 PM 73.9 °F 32.0 °F 21% 30.17 in 10.0 mi South 12.7 mph 20.7 mph N/A   Clear
4:56 PM 73.9 °F 33.1 °F 22% 30.17 in 10.0 mi WSW 10.4 mph - N/A   Clear
5:56 PM 71.1 °F 32.0 °F 24% 30.17 in 10.0 mi SSW 8.1 mph - N/A   Clear
6:56 PM 68.0 °F 32.0 °F 26% 30.17 in 10.0 mi SSW 5.8 mph - N/A   Clear
7:56 PM 66.0 °F 34.0 °F 30% 30.19 in 10.0 mi South 6.9 mph - N/A   Overcast
8:56 PM 63.0 °F 33.1 °F 33% 30.20 in 10.0 mi South 9.2 mph - N/A   Mostly Cloudy
9:56 PM 62.1 °F 37.9 °F 41% 30.21 in 10.0 mi SSW 8.1 mph - N/A   Overcast
10:56 PM 59.0 °F 43.0 °F 55% 30.22 in 10.0 mi SSW 9.2 mph - N/A   Overcast
11:56 PM 57.9 °F 46.0 °F 65% 30.21 in 10.0 mi SSW 5.8 mph - N/A   Mostly Cloudy